Home   Weather   Hoshiarpur   Past weeks

Flag for India Past Weather in Hoshiarpur, Punjab, India — Yesterday and Last 2 Weeks

Now
81 °F

Fog.


Feels Like: 89 °F
Forecast: 72 / 95 °F
Wind: No wind

Location: Amritsar Airport

Current Time: Sep 25, 2016 at 11:03:36 PM

Latest Report: Sep 25, 2016 at 10:00 PM


Visibility: 2 mi

Pressure: 29.68 "Hg

Humidity: 100%

Dew Point: 81 °F

Location of HoshiarpurLocation

Past Weather in Hoshiarpur — Graph

°F

Hoshiarpur Temperature Yesterday

Maximum temperature yesterday: 90 °F (at 12:30 PM)
Minimum temperature yesterday: 75 °F (at 4:30 AM)
Average temperature yesterday: 82 °F

High & Low Weather Summary for the Past Weeks

 TemperatureHumidityPressure
High95 °F (Sep 11, 3:30 PM)100% (Sep 10, 9:30 PM)29.92 "Hg (Sep 10, 9:30 PM)
Low73 °F (Sep 14, 7:00 AM)56% (Sep 11, 11:00 AM)29.59 "Hg (Sep 11, 4:00 PM)
Average84 °F86%29.71 "Hg
* Reported Sep 10 9:30 PM — Sep 25 10:00 PM, Hoshiarpur, Weather by CustomWeather, © 2016

Note: Actual official high and low records may vary slightly from our data, if they occured in-between our weather recording intervals... More about our weather records

Advertising

Hoshiarpur Weather History for the Previous 24 Hours

Scroll right to see more
 ConditionsComfort  
Time TempWeatherWind HumidityBarometerVisibility
10:00 PM
Sun, Sep 25
81 °FFog.No wind100%29.68 "Hg2 mi
9:30 PM81 °FFog.No wind100%29.68 "Hg2 mi
9:00 PM82 °FFog.No wind100%29.68 "Hg2 mi
8:30 PM82 °FFog.No wind100%29.68 "Hg1 mi
8:00 PM82 °FFog.No wind100%29.68 "Hg1 mi
7:30 PM84 °FFog.No wind89%29.68 "Hg1 mi
7:00 PM84 °FHaze.No wind89%29.65 "Hg1 mi
6:30 PM86 °FHaze.No wind79%29.65 "Hg1 mi
6:00 PM86 °FHaze.No wind79%29.65 "Hg1 mi
5:30 PM88 °FHaze.1 mph75%29.65 "Hg1 mi
5:00 PM88 °FScattered clouds.6 mph70%29.65 "Hg1 mi
4:30 PM90 °FScattered clouds.5 mph67%29.65 "Hg1 mi
4:00 PM90 °FScattered clouds.6 mph67%29.68 "Hg2 mi
3:30 PM90 °FScattered clouds.6 mph67%29.68 "Hg2 mi
3:00 PM90 °FScattered clouds.6 mph67%29.68 "Hg2 mi
2:30 PM90 °FScattered clouds.5 mph67%29.71 "Hg2 mi
2:00 PM90 °FScattered clouds.6 mph67%29.71 "Hg2 mi
11:30 AM88 °FScattered clouds.2 mph70%29.77 "Hg2 mi
11:00 AM88 °FFog.3 mph75%29.77 "Hg2 mi
10:30 AM86 °FFog.2 mph79%29.77 "Hg1 mi
10:00 AM86 °FFog.2 mph84%29.77 "Hg1 mi
9:30 AM84 °FFog.2 mph100%29.77 "Hg1 mi
9:00 AM82 °FFog.2 mph100%29.77 "Hg1 mi
8:30 AM81 °FFog.No wind100%29.77 "Hg1 mi
8:00 AM79 °FFog.No wind100%29.74 "Hg1 mi
7:30 AM77 °FFog.No wind100%29.74 "Hg1 mi
7:00 AM75 °FFog.No wind100%29.71 "Hg1 mi
6:30 AM75 °FFog.No wind100%29.71 "Hg1 mi
6:00 AM75 °FFog.No wind100%29.71 "Hg1 mi
5:30 AM77 °FFog.No wind100%29.71 "Hg1 mi
5:00 AM77 °FFog.No wind100%29.71 "Hg1 mi
4:30 AM77 °FFog.No wind100%29.68 "Hg1 mi
4:00 AM77 °FFog.No wind100%29.68 "Hg1 mi
3:00 AM77 °FFog.No wind100%29.68 "Hg1 mi
2:30 AM79 °FFog.No wind100%29.68 "Hg1 mi
2:00 AM79 °FFog.No wind100%29.68 "Hg1 mi
1:30 AM79 °FFog.No wind100%29.68 "Hg1 mi
1:00 AM79 °FFog.No wind100%29.68 "Hg1 mi
12:30 AM79 °FFog.No wind100%29.68 "Hg2 mi
12:00 AM81 °FFog.No wind100%29.68 "Hg2 mi
11:30 PM
Sat, Sep 24
79 °FFog.No wind100%29.68 "Hg2 mi
11:00 PM79 °FFog.No wind100%29.68 "Hg2 mi
Weather by CustomWeather, © 2016

See weather overviewHow to use our weather pages